This is the latest recevied weather packets stored in our database for station/object KF7PIZ. If no packets are shown the sender has not sent any weather packets the latest 1 day(s).
| Time | Temp. | Humidity | Pressure | Rain* | Wind** | Luminosity | Snow |
|---|---|---|---|---|---|---|---|
| 1778038052 | 16.67° C | 53% | 1013.4 hPa | 0 mm | - | 0 W/m² | - |
| 1778037749 | 17.22° C | 52% | 1013.4 hPa | 0 mm | - | 0 W/m² | - |
| 1778037446 | 17.22° C | 53% | 1013.2 hPa | 0 mm | - | 0 W/m² | - |
| 1778037143 | 17.22° C | 52% | 1013.3 hPa | 0 mm | - | 0 W/m² | - |
| 1778036842 | 17.78° C | 52% | 1013.2 hPa | 0 mm | - | 0 W/m² | - |
| 1778036539 | 17.78° C | 51% | 1013 hPa | 0 mm | - | 0 W/m² | - |
| 1778036235 | 17.78° C | 50% | 1012.8 hPa | 0 mm | - | 0 W/m² | - |
| 1778035932 | 18.33° C | 50% | 1013.1 hPa | 0 mm | - | 1 W/m² | - |
| 1778035629 | 18.33° C | 48% | 1012.8 hPa | 0 mm | - | 2 W/m² | - |
| 1778035325 | 18.89° C | 47% | 1012.8 hPa | 0 mm | - | 4 W/m² | - |
| 1778034719 | 19.44° C | 45% | 1012.5 hPa | 0 mm | - | 8 W/m² | - |
| 1778034416 | 19.44° C | 43% | 1012.3 hPa | 0 mm | - | 10 W/m² | - |
| 1778034113 | 20° C | 42% | 1012.5 hPa | 0 mm | - | 11 W/m² | - |
| 1778033811 | 20.56° C | 40% | 1012.5 hPa | 0 mm | - | 14 W/m² | - |
| 1778033508 | 20.56° C | 34% | 1012.5 hPa | 0 mm | - | 14 W/m² | - |
| 1778033205 | 21.11° C | 36% | 1012.5 hPa | 0 mm | - | 18 W/m² | - |
| 1778032903 | 21.11° C | 34% | 1012.3 hPa | 0 mm | - | 20 W/m² | - |
| 1778032600 | 21.67° C | 35% | 1012.2 hPa | 0 mm | - | 23 W/m² | - |
| 1778032297 | 21.67° C | 32% | 1012.1 hPa | 0 mm | - | 24 W/m² | - |
| 1778031995 | 22.22° C | 33% | 1012.1 hPa | 0 mm | - | 30 W/m² | - |
| 1778031690 | 23.33° C | 31% | 1012.1 hPa | 0 mm | - | 43 W/m² | - |
| 1778031389 | 24.44° C | 31% | 1012 hPa | 0 mm | - | 97 W/m² | - |
| 1778031085 | 25.56° C | 27% | 1012.2 hPa | 0 mm | - | 111 W/m² | - |
| 1778030478 | 25.56° C | 28% | 1012.3 hPa | 0 mm | - | 147 W/m² | - |
| 1778030176 | 25° C | 28% | 1012.3 hPa | 0 mm | - | 167 W/m² | - |
* Rain latest hour (hover to see other rain measurements)
** Current wind speed in m/s (hover to see current wind gust speed)